Location: Hawks Ness
(60.2333°N, 1.1667°W)
Time: 11:32:14
(UTC+00:00)

Cosmos 1726 - Pass Details

Date: 22 October 2019
Orbit: 483 x 500 km, 82.5° (Epoch: 13 November)

Event Time Altitude Azimuth Distance (km) Brightness Sun altitude
Rises 05:51:11 0° 337° (NNW) 2,569 5.4 -9.3°
Reaches altitude 10° 05:53:48 10° 317° (NW) 1,684 4.4 -8.9°
Maximum altitude 05:56:17 17° 275° (W) 1,285 3.5 -8.6°
Drops below altitude 10° 05:58:45 10° 232° (SW) 1,679 4.4 -8.3°
Sets 06:01:21 0° 213° (SSW) 2,558 5.5 -8.0°
